EN

Hourly Weather Altay

Today, 21 January, Thursday

Time Temperature Precipitation Wind Pressure Humidity
00:00 -5°C° 0.5 mm 4 mps 729 mmHg 96%
01:00 -7°C° 0.5 mm 4 mps 729 mmHg 96%
02:00 -7°C° 0.5 mm 4 mps 730 mmHg 96%
03:00 -6°C° 0.5 mm 3 mps 730 mmHg 96%
04:00 -6°C° 0.5 mm 3 mps 730 mmHg 96%
05:00 -6°C° 0.5 mm 3 mps 730 mmHg 96%
06:00 -5°C° 0.3 mm 2 mps 729 mmHg 96%
07:00 -5°C° 0.3 mm 2 mps 729 mmHg 96%
08:00 -5°C° 0.3 mm 2 mps 728 mmHg 96%
09:00 -4°C° 0.4 mm 2 mps 728 mmHg 95%
10:00 -5°C° 0.4 mm 3 mps 728 mmHg 95%
11:00 -4°C° 0.4 mm 3 mps 728 mmHg 95%
12:00 -4°C° 0.3 mm 3 mps 727 mmHg 95%
13:00 -4°C° 0.3 mm 3 mps 726 mmHg 95%
14:00 -2°C° 0.3 mm 2 mps 725 mmHg 95%
15:00 -3°C° 0.1 mm 2 mps 725 mmHg 94%
16:00 -3°C° 0.1 mm 2 mps 725 mmHg 94%
17:00 -3°C° 0.1 mm 2 mps 724 mmHg 93%
18:00 -3°C° 0 mm 2 mps 724 mmHg 93%
19:00 -1°C° 0 mm 1 mps 723 mmHg 92%
20:00 -1°C° 0 mm 1 mps 722 mmHg 91%
21:00 -1°C° 0.1 mm 1 mps 722 mmHg 92%
22:00 -1°C° 0.1 mm 1 mps 721 mmHg 92%
23:00 -1°C° 0.1 mm 1 mps 720 mmHg 93%

Tomorrow, 22 January, Friday

Time Temperature Precipitation Wind Pressure Humidity
00:00 -2°C° 0 mm 1 mps 720 mmHg 92%
01:00 -2°C° 0 mm 1 mps 720 mmHg 90%
02:00 -2°C° 0 mm 1 mps 719 mmHg 89%
03:00 -3°C° 0 mm 1 mps 719 mmHg 89%
04:00 -3°C° 0 mm 1 mps 719 mmHg 89%
05:00 -3°C° 0 mm 1 mps 719 mmHg 89%
06:00 -4°C° 0 mm 1 mps 719 mmHg 90%
07:00 -4°C° 0 mm 1 mps 720 mmHg 91%
08:00 -6°C° 0 mm 1 mps 720 mmHg 92%
09:00 -4°C° 0.1 mm 1 mps 720 mmHg 92%
10:00 -4°C° 0.1 mm 1 mps 720 mmHg 92%
11:00 -4°C° 0.1 mm 1 mps 720 mmHg 92%
12:00 -6°C° 0.4 mm 1 mps 721 mmHg 93%
13:00 -7°C° 0.4 mm 2 mps 721 mmHg 94%
14:00 -8°C° 0.4 mm 2 mps 721 mmHg 95%
15:00 -10°C° 1.5 mm 3 mps 722 mmHg 95%
16:00 -12°C° 1.5 mm 3 mps 722 mmHg 95%
17:00 -13°C° 1.5 mm 3 mps 723 mmHg 95%
18:00 -15°C° 0.7 mm 4 mps 724 mmHg 95%
19:00 -16°C° 0.7 mm 4 mps 725 mmHg 95%
20:00 -17°C° 0.7 mm 4 mps 726 mmHg 94%
21:00 -18°C° 0.2 mm 4 mps 728 mmHg 95%
22:00 -18°C° 0.2 mm 3 mps 729 mmHg 95%
23:00 -18°C° 0.2 mm 2 mps 730 mmHg 96%

Day after tomorrow, 23 January, Saturday

Time Temperature Precipitation Wind Pressure Humidity
00:00 -19°C° 0.1 mm 2 mps 731 mmHg 96%
01:00 -18°C° 0.1 mm 1 mps 732 mmHg 97%
02:00 -18°C° 0.1 mm 1 mps 733 mmHg 97%
03:00 -19°C° 0 mm 1 mps 733 mmHg 97%
04:00 -20°C° 0 mm 1 mps 733 mmHg 97%
05:00 -23°C° 0 mm 2 mps 733 mmHg 97%
06:00 -23°C° 0 mm 2 mps 734 mmHg 96%
07:00 -23°C° 0 mm 2 mps 734 mmHg 95%
08:00 -23°C° 0 mm 2 mps 735 mmHg 93%
09:00 -20°C° 0 mm 2 mps 735 mmHg 91%
10:00 -19°C° 0 mm 3 mps 735 mmHg 88%
11:00 -18°C° 0 mm 4 mps 735 mmHg 86%
12:00 -18°C° 0.1 mm 4 mps 735 mmHg 87%
13:00 -18°C° 0.1 mm 4 mps 735 mmHg 88%
14:00 -17°C° 0.1 mm 4 mps 735 mmHg 90%
15:00 -18°C° 0.2 mm 4 mps 735 mmHg 91%
16:00 -18°C° 0.2 mm 4 mps 735 mmHg 93%
17:00 -17°C° 0.2 mm 3 mps 736 mmHg 95%
18:00 -17°C° 0.3 mm 3 mps 736 mmHg 95%
19:00 -18°C° 0.3 mm 4 mps 737 mmHg 94%
20:00 -18°C° 0.3 mm 4 mps 737 mmHg 94%
21:00 -18°C° 0.3 mm 4 mps 737 mmHg 95%
22:00 -17°C° 0.3 mm 3 mps 737 mmHg 95%
23:00 -17°C° 0.3 mm 3 mps 737 mmHg 95%

24 January, Sunday

Time Temperature Precipitation Wind Pressure Humidity
00:00 -17°C° 0.2 mm 3 mps 737 mmHg 95%
01:00 -18°C° 0.2 mm 3 mps 737 mmHg 95%
02:00 -18°C° 0.2 mm 3 mps 737 mmHg 96%
03:00 -18°C° 0.2 mm 3 mps 737 mmHg 96%
04:00 -17°C° 0.2 mm 2 mps 737 mmHg 96%
05:00 -17°C° 0.2 mm 2 mps 737 mmHg 96%
06:00 -17°C° 0.3 mm 2 mps 738 mmHg 96%
07:00 -17°C° 0.3 mm 2 mps 738 mmHg 96%
08:00 -17°C° 0.3 mm 2 mps 738 mmHg 96%
09:00 -17°C° 0.2 mm 3 mps 739 mmHg 95%
10:00 -17°C° 0.2 mm 3 mps 739 mmHg 94%
11:00 -17°C° 0.2 mm 3 mps 739 mmHg 93%
12:00 -18°C° 0.1 mm 3 mps 739 mmHg 94%
13:00 -19°C° 0.1 mm 3 mps 739 mmHg 94%
14:00 -18°C° 0.1 mm 2 mps 739 mmHg 94%
15:00 -20°C° 0.1 mm 2 mps 740 mmHg 95%
16:00 -21°C° 0.1 mm 2 mps 740 mmHg 97%
17:00 -20°C° 0.1 mm 1 mps 740 mmHg 98%
18:00 -21°C° 0 mm 1 mps 740 mmHg 98%
19:00 -21°C° 0 mm 1 mps 741 mmHg 98%
20:00 -22°C° 0 mm 1 mps 741 mmHg 98%
21:00 -23°C° 0 mm 1 mps 741 mmHg 98%
22:00 -24°C° 0 mm 1 mps 741 mmHg 98%
23:00 -24°C° 0 mm 0 mps 741 mmHg 99%

25 January, Monday

Time Temperature Precipitation Wind Pressure Humidity
00:00 -25°C° 0 mm 0 mps 741 mmHg 99%
01:00 -27°C° 0 mm 0 mps 741 mmHg 99%
02:00 -28°C° 0 mm 0 mps 741 mmHg 100%
03:00 -28°C° 0 mm 0 mps 741 mmHg 99%
04:00 -29°C° 0 mm 0 mps 741 mmHg 99%
05:00 -29°C° 0 mm 0 mps 741 mmHg 99%
06:00 -29°C° 0 mm 0 mps 741 mmHg 99%
07:00 -29°C° 0 mm 1 mps 742 mmHg 99%
08:00 -29°C° 0 mm 1 mps 742 mmHg 99%
09:00 -27°C° 0 mm 1 mps 742 mmHg 97%
10:00 -24°C° 0 mm 1 mps 742 mmHg 95%
11:00 -22°C° 0 mm 1 mps 741 mmHg 93%
12:00 -21°C° 0 mm 1 mps 741 mmHg 91%
13:00 -20°C° 0 mm 1 mps 741 mmHg 90%
14:00 -19°C° 0 mm 1 mps 740 mmHg 88%
15:00 -19°C° 0 mm 1 mps 740 mmHg 88%
16:00 -19°C° 0 mm 1 mps 740 mmHg 88%
17:00 -19°C° 0 mm 1 mps 740 mmHg 88%
18:00 -18°C° 0 mm 1 mps 740 mmHg 88%
19:00 -20°C° 0 mm 2 mps 740 mmHg 87%
20:00 -19°C° 0 mm 2 mps 739 mmHg 87%
21:00 -18°C° 0.1 mm 2 mps 739 mmHg 90%
22:00 -18°C° 0.1 mm 2 mps 739 mmHg 93%
23:00 -19°C° 0.1 mm 3 mps 738 mmHg 96%

26 January, Tuesday

Time Temperature Precipitation Wind Pressure Humidity
00:00 -18°C° 0.2 mm 3 mps 738 mmHg 95%
01:00 -18°C° 0.2 mm 3 mps 738 mmHg 95%
02:00 -18°C° 0.2 mm 3 mps 738 mmHg 95%
03:00 -17°C° 0.4 mm 3 mps 737 mmHg 95%
04:00 -18°C° 0.4 mm 4 mps 737 mmHg 95%
05:00 -18°C° 0.4 mm 4 mps 737 mmHg 95%
06:00 -18°C° 0.5 mm 4 mps 737 mmHg 95%
07:00 -18°C° 0.5 mm 4 mps 737 mmHg 95%
08:00 -18°C° 0.5 mm 4 mps 737 mmHg 95%
09:00 -17°C° 0.4 mm 4 mps 737 mmHg 94%
10:00 -18°C° 0.4 mm 5 mps 737 mmHg 94%
11:00 -17°C° 0.4 mm 5 mps 737 mmHg 94%
12:00 -16°C° 0.4 mm 4 mps 736 mmHg 94%
13:00 -15°C° 0.4 mm 4 mps 736 mmHg 94%
14:00 -15°C° 0.4 mm 4 mps 736 mmHg 94%
15:00 -15°C° 0.4 mm 4 mps 736 mmHg 94%
16:00 -14°C° 0.4 mm 3 mps 736 mmHg 95%
17:00 -14°C° 0.4 mm 3 mps 737 mmHg 95%
18:00 -14°C° 0.4 mm 3 mps 737 mmHg 95%
19:00 -14°C° 0.4 mm 3 mps 737 mmHg 95%
20:00 -15°C° 0.4 mm 3 mps 737 mmHg 95%
21:00 -15°C° 0.4 mm 3 mps 737 mmHg 95%
22:00 -14°C° 0.4 mm 2 mps 737 mmHg 95%
23:00 -14°C° 0.4 mm 2 mps 738 mmHg 95%
Show more